Location: Ferintosh
(52.7647°N, 112.9692°W)
Time: 23:11:53
(UTC+00:00)

A-11 Canister half - Pass Details

Date: 21 May 2024
Orbit: 1524 x 1683 km, 47.3° (Epoch: 20 June)

Event Time Altitude Azimuth Distance (km) Brightness Sun altitude
Rises 09:27:58 0° 276° (W) 4,761 11.4 -12.4°
Reaches altitude 10° 09:31:05 10° 273° (W) 3,797 10.8 -12.2°
Maximum altitude 09:40:24 55° 199° (SSW) 1,895 9.1 -11.5°
Drops below altitude 10° 09:50:01 10° 125° (SE) 3,908 11.1 -10.7°
Sets 09:53:16 0° 122° (ESE) 4,909 11.7 -10.5°
